Regional Weather Roundup
Issued by NWS

Home | Current Version | Previous Version | Graphics & Text | Print | Product List | Glossary Off
Versions: 1 2 3 4 5 6 7 8 9 10 11 12 13 14 15 16 17 18 19 20 21 22 23 24 25 26 27 28 29 30 31 32 33 34 35 36 37 38 39 40 41 42 43 44 45 46 47 48 49 50

412
ASUS43 KTOP 302259
RWRKS

WEATHER ROUNDUP FOR KANSAS
NATIONAL WEATHER SERVICE GOODLAND KS
600 PM CDT SAT JUL 30 2016

NOTE:  "FAIR" INDICATES FEW OR NO CLOUDS BELOW 12,000 FEET WITH NO
SIGNIFICANT WEATHER AND/OR OBSTRUCTIONS TO VISIBILITY.

KSZ001>006-013>018-027>032-041>047-310000-
NORTHWEST KANSAS

CITY           SKY/WX    TMP DP  RH WIND       PRES   REMARKS
GOODLAND       SUNNY     90  60  36 S17       29.92F
HAYS           MOSUNNY   90  64  43 SE13      29.90F
HILL CITY      SUNNY     89  66  46 SE13G22   29.89F
RUSSELL        SUNNY     90  65  43 SE13G22   29.89F
$$

KSZ061>065-074>080-084>089-310000-
SOUTHWEST KANSAS

CITY           SKY/WX    TMP DP  RH WIND       PRES   REMARKS
DODGE CITY     SUNNY     92  63  38 SE15      29.90F
ELKHART          N/A     93  63  36 S13         N/A
GARDEN CITY    SUNNY     91  65  41 S12       29.89F
GREAT BEND     SUNNY     88  70  55 SE16      29.90F
LIBERAL        SUNNY     97  61  30 SW17G24   29.90F HX  97
$$

KSZ066>073-081>083-090>101-310000-
SOUTHEAST KANSAS

CITY           SKY/WX    TMP DP  RH WIND       PRES   REMARKS
CHANUTE        SUNNY     88  71  57 SE7       29.93S
COFFEYVILLE    MOSUNNY   89  69  51 SE6       29.92S
HUTCHINSON     SUNNY     88  67  49 S13       29.92F
NEWTON         SUNNY     86  69  56 SE12      29.94F
PARSONS        MOSUNNY   86  70  58 SE5       29.94S
WICHITA INTL   MOSUNNY   88  67  49 SE9       29.91F
WICHITA JABRA  SUNNY     87  70  56 SE10      29.92F
WICHITA MCCONL SUNNY     88  68  50 S12G17    29.92F
WINFIELD       SUNNY     88  70  55 SE9       29.93F
$$

KSZ007>012-019>026-033>040-048>060-102>105-310000-
NORTHEAST KANSAS

CITY           SKY/WX    TMP DP  RH WIND       PRES   REMARKS
CONCORDIA      MOSUNNY   83  69  62 SE14      29.93F
EMPORIA        MOSUNNY   86  69  56 SE8       29.93F
LAWRENCE       SUNNY     82  71  69 CALM      29.93F
MANHATTAN      SUNNY     84  70  62 E10       29.92F
OLATHE IND     SUNNY     84  69  60 E5        29.94F
OLATHE EXE     SUNNY     82  67  60 CALM      29.94F
SALINA         PTSUNNY   90  68  48 SE14      29.90F
TOPEKA BILLARD SUNNY     83  67  58 E5        29.93F
TOPEKA FORBES  SUNNY     85  67  54 SE7       29.94F
$$




USA.gov is the U.S. government's official web portal to all federal, state and local government web resources and services.